Regional Weather Roundup
Issued by NWS Mt. Holly, NJ

Home | Current Version | Previous Version | Text Only | Print | Product List | Glossary On
Versions: 1 2 3 4 5 6 7 8 9 10 11 12 13 14 15 16 17 18 19 20 21 22 23 24 25 26 27 28 29 30 31 32 33 34 35 36 37 38 39 40 41 42 43 44 45 46 47 48 49 50
000
ASUS41 KPHI 291210
RWRPHI

REGIONAL WEATHER ROUNDUP
NATIONAL WEATHER SERVICE MOUNT HOLLY NJ
800 AM EDT TUE JUL 29 2014

NOTE:  "FAIR" INDICATES FEW OR NO CLOUDS BELOW 12,000 FEET WITH NO
SIGNIFICANT WEATHER AND/OR OBSTRUCTIONS TO VISIBILITY.

 * = STATION DOES NOT REPORT PRECIPITATION (E.G. RAIN, SNOW, ETC.)
        OR FOG.

NJZ015>026-291300-
SOUTHERN NEW JERSEY

CITY           SKY/WX    TMP DP  RH WIND       PRES   REMARKS
POMONA         SUNNY     65  58  78 NW10      29.88R
6HR MIN TEMP:  60; 6HR MAX TEMP:  65;

RIO GRANDE*    SUNNY     66  55  68 NW5       29.90R
MILLVILLE      SUNNY     65  58  78 NW8       29.89R
WRIGHTSTOWN    SUNNY     65  56  74 NW9       29.86R
MOUNT HOLLY    SUNNY     65  55  70 NW8       29.88R
TRENTON        PTSUNNY   63  54  72 W7        29.87R
6HR MIN TEMP:  60; 6HR MAX TEMP:  65;


$$
NJZ001>014-291300-
NORTHERN NEW JERSEY

CITY           SKY/WX    TMP DP  RH WIND       PRES   REMARKS
SUSSEX         MOSUNNY   64  55  72 CALM      29.87R
ANDOVER*         N/A     61  56  83 CALM      29.88R
MORRISTOWN     MOSUNNY   64  55  72 NW3       29.86R
NEWARK         MOSUNNY   66  55  67 W10       29.85R
TETERBORO      SUNNY     67  54  63 NW10      29.83R
CALDWELL       SUNNY     64  53  67 NW6       29.86R
SOMERVILLE     MOSUNNY   64  55  72 MISG      29.85R
ALLAIRE*       SUNNY     64  54  68 NW9       29.86R
TOMS RIVER*    SUNNY     64  55  72 NW6       29.87R

$$
PAZ043-044-047-054-055-060>062-066>071-291300-
EASTERN PENNSYLVANIA

CITY           SKY/WX    TMP DP  RH WIND       PRES   REMARKS
PHILADELPHIA   MOSUNNY   66  55  67 NW8       29.89R
6HR MIN TEMP:  64; 6HR MAX TEMP:  68;

NORTH PHILA    SUNNY     66  54  65 NW7       29.89R
BLUE BELL      MOSUNNY   64  55  72 CALM      29.88R
DOYLESTOWN     MOSUNNY   61  55  81 VRB3      29.88R
QUAKERTOWN*    SUNNY     61  55  82 NW3       29.90R
POTTSTOWN      SUNNY     61  56  83 W5        29.91R
LANCASTER      SUNNY     61  56  83 W3        29.91R
COATESVILLE    SUNNY     63  63 100 NW7       29.91R
READING        SUNNY     63  56  78 W7        29.89R
6HR MIN TEMP:  59; 6HR MAX TEMP:  63;

ALLENTOWN      SUNNY     61  54  77 W5        29.89R
6HR MIN TEMP:  54; 6HR MAX TEMP:  63;

MOUNT POCONO   SUNNY     56  50  80 NW13      29.89R
6HR MIN TEMP:  54; 6HR MAX TEMP:  56;

HAZLETON       CLOUDY    55  52  88 CALM      29.94R
WILKES BARRE   PTSUNNY   60  53  77 NW7       29.90R

$$
DEZALL-MDZ008-012-015-019-020-291300-
DELAWARE AND EASTERN MARYLAND

CITY           SKY/WX    TMP DP  RH WIND       PRES   REMARKS
WILMINGTON     MOSUNNY   65  57  75 NW7       29.90R
6HR MIN TEMP:  60; 6HR MAX TEMP:  65;

DOVER          SUNNY     66  58  75 NW12      29.89R
GEORGETOWN     SUNNY     67  58  72 VRB5      29.91R
6HR MIN TEMP:  64; 6HR MAX TEMP:  69;

EASTON         MOSUNNY   70  59  68 CALM      29.95R
PATUXENT       MOSUNNY   67  58  72 NW8       29.92R
OCEAN CITY     SUNNY     68  60  75 NW6       29.90R
WALLOPS ISLAND PTSUNNY   70  60  70 N9        29.91R
CAMBRIDGE      MOSUNNY   72  59  64 N5        29.91R
SALISBURY      SUNNY    N/A N/A N/A MISG        N/A

$$
PAZ001-021-NYZ056-072-MDZ011-DCZ001-291300-
OTHER NEARBY LOCATIONS

CITY           SKY/WX    TMP DP  RH WIND       PRES   REMARKS
HARRISBURG     SUNNY     63  56  78 NW10      29.91R
STATE COLLEGE  CLOUDY    57  54  88 W6        29.94R
WILLIAMSPORT   MOSUNNY   61  51  70 W10       29.91R
BINGHAMTON     CLOUDY    55  53  93 W7        29.89R
NEW YORK CITY  SUNNY     64  53  67 VRB3      29.87R
BALTIMORE      CLOUDY    63  55  75 W7        29.92R
WASHINGTON DC  MOSUNNY   67  51  56 NW15      29.94R

$$


USA.gov is the U.S. government's official web portal to all federal, state and local government web resources and services.